Regional Weather Roundup
Issued by NWS

Home | Current Version | Previous Version | Graphics & Text | Print | Product List | Glossary On
Versions: 1 2 3 4 5 6 7 8 9 10 11 12 13 14 15 16 17 18 19 20 21 22 23 24 25 26 27 28 29 30 31 32 33 34 35 36 37 38 39 40 41 42 43 44 45 46 47 48 49 50
000
ASUS43 KIND 230509
RWRIN

WEATHER ROUNDUP FOR INDIANA
NATIONAL WEATHER SERVICE INDIANAPOLIS IN
100 AM EDT FRI JUN 23 2017

NOTE: "FAIR" INDICATES FEW OR NO CLOUDS BELOW 12,000 FEET WITH NO
SIGNIFICANT WEATHER AND/OR OBSTRUCTIONS TO VISIBILITY.

* - STATION DOES NOT REPORT WEATHER SUCH AS PRECIPITATION OR FOG.

+ - STATION NOT QUALITY CONTROLLED BY THE NATIONAL WEATHER SERVICE.
    USE DATA WITH CAUTION...ESPECIALLY DEWPOINT AND RELATIVE
    HUMIDITY OBSERVATIONS.

INZ001>003-010>013-019-020-230600-
NORTHWEST INDIANA

CITY           SKY/WX    TMP DP  RH WIND       PRES   REMARKS
GARY /AIRPORT/ RAIN      76  70  80 S7        29.74F
KNOX *+        CLOUDY    73  61  64 S9        29.77S
LA PORTE +     CLOUDY    73  69  85 SW8       29.77F
MICHIGAN CITY+ HVY RAIN  72  70  94 S10       29.75F
MONTICELLO +   CLOUDY    73  69  90 S9        29.77S
RENSSELAER +   CLOUDY    73  68  83 S9        29.76F
VALPARAISO     CLOUDY    75  70  84 S10       29.76F

$$

LMZ046-743>745-230600-
SOUTHERN LAKE MICHIGAN

STATION/POSITION TIME  TEMP    WIND        PRES    WAVE
                       AIR SEA DIR/SP/G            HT
                 (UTC) (F)     (DEG/KT/KT) (MB)    (FT)
BURNS HARBOR     0440   74     190/ 16/ 21 1007.8F
MICHIGAN CITY    0440   74     180/ 10/ 12   N/A
5NW MICH CITY    0500   72 68  200/ 12/ 16   N/A     1

$$

INZ004-005-014>016-021>024-230600-
NORTH CENTRAL INDIANA

CITY           SKY/WX    TMP DP  RH WIND       PRES   REMARKS
GOSHEN         CLOUDY    75  66  73 SW14      29.78F
LOGANSPORT +   CLOUDY    72  68  88 S13       29.80F
PERU/GRISSOM   CLOUDY    73  71  94 S12       29.78S
ROCHESTER +    CLOUDY    73  70  88 S7        29.80S
SOUTH BEND     CLOUDY    74  68  81 S12       29.76
WARSAW +       CLOUDY    73  64  73 SW10      29.79S

$$

INZ006>009-017-018-025>027-230600-
NORTHEAST INDIANA

CITY           SKY/WX    TMP DP  RH WIND       PRES   REMARKS
AUBURN +       CLOUDY    73  64  73 SW9G17    29.80F
FORT WAYNE     CLOUDY    74  67  78 S12       29.80
HUNTINGTON +   CLOUDY    73  68  84 SW7       29.80F
KENDALLVILLE + CLOUDY    74  67  81 S9        29.80F

$$

INZ028-029-035-036-043>045-051>053-230600-
WEST CENTRAL INDIANA

CITY           SKY/WX    TMP DP  RH WIND       PRES   REMARKS
CRAWFORDSVL +  CLOUDY    70  70 100 S12       29.79F
GREENCASTLE +  CLOUDY    72  70  94 S5        29.81F
LAFAYETTE      CLOUDY    72  70  93 VRB5      29.77F
TERRE HAUTE    CLOUDY    74  70  87 S7        29.79F

$$

INZ030>032-037>040-046>048-054>057-064-065-230600-
CENTRAL INDIANA

CITY           SKY/WX    TMP DP  RH WIND       PRES   REMARKS
CP ATTERBURY + CLOUDY    70  68  94 S7        29.83F
FRANKFORT +    CLOUDY    74  72  92 S6        29.81F
GREENWOOD *+   CLOUDY    72  69  89 S10       29.83F
INDIANAPOLIS   CLOUDY    72  70  93 S12       29.80
-EAGLE CREEK   CLOUDY    73  69  87 S8        29.80F
KOKOMO +       CLOUDY    72  69  90 S15       29.81
MARION +       CLOUDY    72  66  83 S10       29.82S
MT COMFORT *+  CLOUDY    72  68  88 S9        29.83F
SHELBYVILLE    CLOUDY    73  68  84 S13       29.82F
ZIONSVILLE +   CLOUDY    71  69  93 S8        29.81F

$$

INZ033-034-041-042-049-050-058-059-230600-
EAST CENTRAL INDIANA

CITY           SKY/WX    TMP DP  RH WIND       PRES   REMARKS
MUNCIE         CLOUDY    74  68  81 S12       29.81F
RICHMOND +     LGT RAIN  68  68 100 S12       29.86F

$$

INZ060-061-067>069-081>083-085>088-230600-
SOUTHWEST INDIANA

CITY           SKY/WX    TMP DP  RH WIND       PRES   REMARKS
EVANSVILLE     CLOUDY    76  73  91 S9        29.80
HUNTINGBURG *+ CLOUDY    75  73  93 S12       29.82F
WASHINGTON +   CLOUDY    73  71  93 S8G16     29.79F

$$

INZ062-063-066-070>080-084-089>092-230600-
SOUTH CENTRAL AND SOUTHEAST INDIANA

CITY           SKY/WX    TMP DP  RH WIND       PRES   REMARKS
BEDFORD +      CLOUDY    72  70  94 S8        29.82F
BLOOMINGTON    CLOUDY    72  69  90 S7        29.82
MADISON *+     CLOUDY    72  70  94 S8        29.88F
NORTH VERNON + CLOUDY    70  70 100 S7        29.85F
SEYMOUR +      CLOUDY    73  72  94 S6        29.83F

$$





USA.gov is the U.S. government's official web portal to all federal, state and local government web resources and services.